Time,TemperatureF,DewpointF,PressureIn,WindDirection,WindDirectionDegrees,WindSpeedMPH,WindSpeedGustMPH,Humidity,HourlyPrecipIn,Conditions,Clouds,dailyrainin,SolarRadiationWatts/m^2,SoftwareType,DateUTC
2013-09-30 00:02:00,59.0,48.1,29.54,South,178,2.0,5.0,67,0.00,,CLR,0.00,0.00,VWS V14.00,2013-09-30 05:02:00,
2013-09-30 00:07:00,58.4,47.9,29.55,South,178,4.0,5.0,68,0.00,,CLR,0.00,0.00,VWS V14.00,2013-09-30 05:07:00,
2013-09-30 00:12:00,57.8,47.7,29.55,South,178,4.0,5.0,69,0.00,,CLR,0.00,0.00,VWS V14.00,2013-09-30 05:12:00,
2013-09-30 00:17:00,57.2,47.5,29.55,South,178,4.0,6.0,70,0.00,,CLR,0.00,0.00,VWS V14.00,2013-09-30 05:17:00,
2013-09-30 00:22:00,56.3,47.4,29.55,South,178,4.0,6.0,72,0.00,,CLR,0.00,0.00,VWS V14.00,2013-09-30 05:22:00,
2013-09-30 00:27:00,55.9,47.7,29.55,South,182,4.0,6.0,74,0.00,,CLR,0.00,0.00,VWS V14.00,2013-09-30 05:27:00,
2013-09-30 00:32:00,56.0,47.8,29.55,SSW,195,5.0,6.0,74,0.00,,CLR,0.00,0.00,VWS V14.00,2013-09-30 05:32:00,
2013-09-30 00:37:00,56.6,47.7,29.55,SSW,198,4.0,6.0,72,0.00,,CLR,0.00,0.00,VWS V14.00,2013-09-30 05:37:00,
2013-09-30 00:42:00,56.9,48.0,29.55,SSW,202,5.0,7.0,72,0.00,,CLR,0.00,0.00,VWS V14.00,2013-09-30 05:42:00,
2013-09-30 00:47:00,56.6,47.7,29.55,SSW,205,5.0,7.0,72,0.00,,CLR,0.00,0.00,VWS V14.00,2013-09-30 05:47:00,
2013-09-30 00:52:00,56.1,47.6,29.55,SSW,206,5.0,7.0,73,0.00,,CLR,0.00,0.00,VWS V14.00,2013-09-30 05:52:00,
2013-09-30 00:57:00,56.1,47.6,29.55,SW,234,5.0,8.0,73,0.00,,CLR,0.00,0.00,VWS V14.00,2013-09-30 05:57:00,
2013-09-30 01:02:00,56.2,47.3,29.55,West,263,6.0,7.0,72,0.00,,CLR,0.00,0.00,VWS V14.00,2013-09-30 06:02:00,
2013-09-30 01:07:00,56.3,47.4,29.55,West,273,5.0,7.0,72,0.00,,CLR,0.00,0.00,VWS V14.00,2013-09-30 06:07:00,
2013-09-30 01:12:00,56.2,46.9,29.55,West,275,4.0,7.0,71,0.00,,CLR,0.00,0.00,VWS V14.00,2013-09-30 06:12:00,
2013-09-30 01:17:00,56.0,47.1,29.55,West,275,3.0,7.0,72,0.00,,CLR,0.00,0.00,VWS V14.00,2013-09-30 06:17:00,
2013-09-30 01:22:00,55.9,47.0,29.55,West,275,3.0,7.0,72,0.00,,CLR,0.00,0.00,VWS V14.00,2013-09-30 06:22:00,
2013-09-30 01:27:00,55.9,47.0,29.55,West,275,3.0,7.0,72,0.00,,CLR,0.00,0.00,VWS V14.00,2013-09-30 06:27:00,
2013-09-30 01:32:00,55.9,46.7,29.55,West,275,3.0,4.0,71,0.00,,CLR,0.00,0.00,VWS V14.00,2013-09-30 06:32:00,
2013-09-30 01:38:00,56.0,46.7,29.55,West,275,3.0,4.0,71,0.00,,CLR,0.00,0.00,VWS V14.00,2013-09-30 06:38:00,
2013-09-30 01:43:00,56.1,46.5,29.56,West,275,3.0,4.0,70,0.00,,CLR,0.00,0.00,VWS V14.00,2013-09-30 06:43:00,
2013-09-30 01:48:00,55.8,46.5,29.56,West,275,4.0,4.0,71,0.00,,CLR,0.00,0.00,VWS V14.00,2013-09-30 06:48:00,
2013-09-30 01:53:00,54.8,46.7,29.57,West,275,5.0,7.0,74,0.00,,CLR,0.00,0.00,VWS V14.00,2013-09-30 06:53:00,
2013-09-30 01:58:00,54.9,46.8,29.57,West,275,5.0,7.0,74,0.00,,CLR,0.00,0.00,VWS V14.00,2013-09-30 06:58:00,
2013-09-30 02:03:00,54.8,47.0,29.57,West,275,4.0,6.0,75,0.00,,CLR,0.00,0.00,VWS V14.00,2013-09-30 07:03:00,
2013-09-30 02:08:00,54.6,47.2,29.57,West,275,4.0,6.0,76,0.00,,CLR,0.00,0.00,VWS V14.00,2013-09-30 07:08:00,
2013-09-30 02:13:00,54.6,47.2,29.57,West,275,3.0,6.0,76,0.00,,CLR,0.00,0.00,VWS V14.00,2013-09-30 07:13:00,
2013-09-30 02:18:00,54.6,47.2,29.57,West,275,3.0,6.0,76,0.00,,CLR,0.00,0.00,VWS V14.00,2013-09-30 07:18:00,
2013-09-30 02:23:00,54.6,47.2,29.57,West,275,4.0,6.0,76,0.00,,CLR,0.00,0.00,VWS V14.00,2013-09-30 07:23:00,
2013-09-30 02:28:00,54.7,46.6,29.57,West,275,4.0,6.0,74,0.00,,CLR,0.00,0.00,VWS V14.00,2013-09-30 07:28:00,
2013-09-30 02:33:00,54.9,46.4,29.56,West,275,4.0,5.0,73,0.00,,CLR,0.00,0.00,VWS V14.00,2013-09-30 07:33:00,
2013-09-30 02:38:00,55.0,46.2,29.56,West,275,0.0,5.0,72,0.00,,CLR,0.00,0.00,VWS V14.00,2013-09-30 07:38:00,
2013-09-30 02:43:00,55.0,46.5,29.56,West,275,0.0,5.0,73,0.00,,CLR,0.00,0.00,VWS V14.00,2013-09-30 07:43:00,
2013-09-30 02:48:00,54.8,46.0,29.56,West,275,3.0,5.0,72,0.00,,CLR,0.00,0.00,VWS V14.00,2013-09-30 07:48:00,
2013-09-30 02:53:00,54.4,45.2,29.56,West,275,5.0,5.0,71,0.00,,CLR,0.00,0.00,VWS V14.00,2013-09-30 07:53:00,
2013-09-30 02:58:00,54.0,45.2,29.56,West,281,6.0,7.0,72,0.00,,CLR,0.00,0.00,VWS V14.00,2013-09-30 07:58:00,
2013-09-30 03:03:00,54.5,44.9,29.57,WNW,289,4.0,8.0,70,0.00,,CLR,0.00,0.00,VWS V14.00,2013-09-30 08:03:00,
2013-09-30 03:08:00,55.3,44.5,29.57,WNW,291,4.0,8.0,67,0.00,,CLR,0.00,0.00,VWS V14.00,2013-09-30 08:08:00,
2013-09-30 03:13:00,55.5,44.3,29.57,WNW,293,4.0,8.0,66,0.00,,CLR,0.00,0.00,VWS V14.00,2013-09-30 08:13:00,
2013-09-30 03:19:00,54.9,44.2,29.57,WNW,293,4.0,8.0,67,0.00,,CLR,0.00,0.00,VWS V14.00,2013-09-30 08:19:00,
2013-09-30 03:24:00,54.7,44.0,29.57,WNW,293,5.0,8.0,67,0.00,,CLR,0.00,0.00,VWS V14.00,2013-09-30 08:24:00,
2013-09-30 03:29:00,54.6,43.5,29.57,WNW,293,3.0,8.0,66,0.00,,CLR,0.00,0.00,VWS V14.00,2013-09-30 08:29:00,
2013-09-30 03:34:00,54.5,43.4,29.57,WNW,293,3.0,5.0,66,0.00,,CLR,0.00,0.00,VWS V14.00,2013-09-30 08:34:00,
2013-09-30 03:39:00,54.4,43.3,29.57,WNW,293,2.0,5.0,66,0.00,,CLR,0.00,0.00,VWS V14.00,2013-09-30 08:39:00,
2013-09-30 03:44:00,54.4,42.9,29.57,WNW,293,4.0,5.0,65,0.00,,CLR,0.00,0.00,VWS V14.00,2013-09-30 08:44:00,
2013-09-30 03:49:00,54.5,42.6,29.57,WNW,293,4.0,5.0,64,0.00,,CLR,0.00,0.00,VWS V14.00,2013-09-30 08:49:00,
2013-09-30 03:54:00,55.1,42.3,29.56,WNW,294,4.0,7.0,62,0.00,,CLR,0.00,0.00,VWS V14.00,2013-09-30 08:54:00,
2013-09-30 03:59:00,55.3,41.7,29.56,WNW,294,4.0,7.0,60,0.00,,CLR,0.00,0.00,VWS V14.00,2013-09-30 08:59:00,
2013-09-30 04:04:00,55.2,41.6,29.56,WNW,294,5.0,7.0,60,0.00,,CLR,0.00,0.00,VWS V14.00,2013-09-30 09:04:00,
2013-09-30 04:09:00,55.0,41.4,29.56,WNW,296,5.0,8.0,60,0.00,,CLR,0.00,0.00,VWS V14.00,2013-09-30 09:09:00,
2013-09-30 04:14:00,55.2,41.1,29.56,WNW,296,4.0,8.0,59,0.00,,CLR,0.00,0.00,VWS V14.00,2013-09-30 09:14:00,
2013-09-30 04:19:00,54.6,41.0,29.56,WNW,296,5.0,8.0,60,0.00,,CLR,0.00,0.00,VWS V14.00,2013-09-30 09:19:00,
2013-09-30 04:24:00,54.0,41.3,29.56,WNW,296,5.0,8.0,62,0.00,,CLR,0.00,0.00,VWS V14.00,2013-09-30 09:24:00,
2013-09-30 04:29:00,53.7,41.0,29.56,WNW,296,4.0,4.0,62,0.00,,CLR,0.00,0.00,VWS V14.00,2013-09-30 09:29:00,
2013-09-30 04:34:00,53.5,40.4,29.56,WNW,296,5.0,6.0,61,0.00,,CLR,0.00,0.00,VWS V14.00,2013-09-30 09:34:00,
2013-09-30 04:39:00,53.5,40.4,29.56,WNW,296,3.0,6.0,61,0.00,,CLR,0.00,0.00,VWS V14.00,2013-09-30 09:39:00,
2013-09-30 04:44:00,53.0,40.3,29.57,WNW,296,5.0,6.0,62,0.00,,CLR,0.00,0.00,VWS V14.00,2013-09-30 09:44:00,
2013-09-30 04:49:00,52.4,40.2,29.57,WNW,296,4.0,7.0,63,0.00,,CLR,0.00,0.00,VWS V14.00,2013-09-30 09:49:00,
2013-09-30 04:54:00,52.2,40.4,29.57,WNW,296,5.0,7.0,64,0.00,,CLR,0.00,0.00,VWS V14.00,2013-09-30 09:54:00,
2013-09-30 04:59:00,52.0,40.2,29.57,WNW,296,5.0,5.0,64,0.00,,CLR,0.00,0.00,VWS V14.00,2013-09-30 09:59:00,
2013-09-30 05:05:00,51.6,40.2,29.56,WNW,296,3.0,5.0,65,0.00,,CLR,0.00,0.00,VWS V14.00,2013-09-30 10:05:00,
2013-09-30 05:10:00,51.3,40.0,29.56,WNW,296,2.0,5.0,65,0.00,,CLR,0.00,0.00,VWS V14.00,2013-09-30 10:10:00,
2013-09-30 05:15:00,51.0,40.1,29.56,WNW,296,3.0,5.0,66,0.00,,CLR,0.00,0.00,VWS V14.00,2013-09-30 10:15:00,
2013-09-30 05:20:00,51.1,40.2,29.57,WNW,296,2.0,5.0,66,0.00,,CLR,0.00,0.00,VWS V14.00,2013-09-30 10:20:00,
2013-09-30 05:25:00,51.1,40.2,29.57,WNW,296,2.0,5.0,66,0.00,,CLR,0.00,0.00,VWS V14.00,2013-09-30 10:25:00,
2013-09-30 05:30:00,50.9,40.0,29.57,WNW,296,2.0,3.0,66,0.00,,CLR,0.00,0.00,VWS V14.00,2013-09-30 10:30:00,
2013-09-30 05:35:00,50.7,40.2,29.57,WNW,296,3.0,4.0,67,0.00,,CLR,0.00,0.00,VWS V14.00,2013-09-30 10:35:00,
2013-09-30 05:40:00,50.8,40.2,29.57,WNW,296,3.0,4.0,67,0.00,,CLR,0.00,0.00,VWS V14.00,2013-09-30 10:40:00,
2013-09-30 05:45:00,51.0,40.4,29.57,WNW,296,0.0,4.0,67,0.00,,CLR,0.00,0.00,VWS V14.00,2013-09-30 10:45:00,
2013-09-30 05:50:00,50.4,40.2,29.57,WNW,296,2.0,4.0,68,0.00,,CLR,0.00,0.00,VWS V14.00,2013-09-30 10:50:00,
2013-09-30 05:55:00,49.3,40.3,29.57,WNW,296,3.0,4.0,71,0.00,,CLR,0.00,0.00,VWS V14.00,2013-09-30 10:55:00,
2013-09-30 06:00:00,48.7,40.5,29.56,WNW,296,3.0,4.0,73,0.00,,CLR,0.00,0.00,VWS V14.00,2013-09-30 11:00:00,
2013-09-30 06:05:00,48.5,40.6,29.56,WNW,296,2.0,4.0,74,0.00,,CLR,0.00,0.00,VWS V14.00,2013-09-30 11:05:00,
2013-09-30 06:10:00,48.4,40.5,29.57,WNW,296,0.0,4.0,74,0.00,,CLR,0.00,0.00,VWS V14.00,2013-09-30 11:10:00,
2013-09-30 06:15:00,48.6,40.7,29.57,WNW,296,0.0,4.0,74,0.00,,CLR,0.00,0.00,VWS V14.00,2013-09-30 11:15:00,
2013-09-30 06:20:00,48.7,40.8,29.56,WNW,296,3.0,4.0,74,0.00,,CLR,0.00,0.00,VWS V14.00,2013-09-30 11:20:00,
2013-09-30 06:25:00,48.7,40.8,29.56,WNW,296,4.0,4.0,74,0.00,,CLR,0.00,0.00,VWS V14.00,2013-09-30 11:25:00,
2013-09-30 06:30:00,48.7,40.8,29.56,WNW,296,2.0,3.0,74,0.00,,CLR,0.00,0.00,VWS V14.00,2013-09-30 11:30:00,
2013-09-30 06:35:00,48.9,40.6,29.56,WNW,296,3.0,4.0,73,0.00,,CLR,0.00,0.00,VWS V14.00,2013-09-30 11:35:00,
2013-09-30 06:40:00,48.9,40.6,29.56,WNW,296,2.0,4.0,73,0.00,,CLR,0.00,0.00,VWS V14.00,2013-09-30 11:40:00,
2013-09-30 06:45:00,49.2,40.6,29.56,WNW,296,2.0,4.0,72,0.00,,CLR,0.00,0.00,VWS V14.00,2013-09-30 11:45:00,
2013-09-30 06:50:00,49.0,40.4,29.57,WNW,296,3.0,4.0,72,0.00,,CLR,0.00,0.00,VWS V14.00,2013-09-30 11:50:00,
2013-09-30 06:55:00,49.1,40.5,29.57,WNW,296,2.0,4.0,72,0.00,,CLR,0.00,0.00,VWS V14.00,2013-09-30 11:55:00,
2013-09-30 07:00:00,49.2,40.6,29.57,WNW,296,3.0,4.0,72,0.00,,CLR,0.00,0.00,VWS V14.00,2013-09-30 12:00:00,
2013-09-30 07:05:00,49.0,40.7,29.57,WNW,296,3.0,4.0,73,0.00,,CLR,0.00,0.00,VWS V14.00,2013-09-30 12:05:00,
2013-09-30 07:10:00,48.8,40.5,29.57,WNW,296,2.0,4.0,73,0.00,,CLR,0.00,0.00,VWS V14.00,2013-09-30 12:10:00,
2013-09-30 07:15:00,48.6,40.7,29.57,WNW,296,3.0,4.0,74,0.00,,CLR,0.00,0.00,VWS V14.00,2013-09-30 12:15:00,
2013-09-30 07:20:00,48.4,40.5,29.57,WNW,296,3.0,4.0,74,0.00,,CLR,0.00,0.00,VWS V14.00,2013-09-30 12:20:00,
2013-09-30 07:25:00,48.4,40.5,29.57,WNW,296,1.0,4.0,74,0.00,,CLR,0.00,0.00,VWS V14.00,2013-09-30 12:25:00,
2013-09-30 07:30:00,48.5,40.2,29.57,WNW,296,0.0,0.0,73,0.00,,CLR,0.00,0.00,VWS V14.00,2013-09-30 12:30:00,
2013-09-30 07:35:00,48.5,39.9,29.56,WNW,296,2.0,3.0,72,0.00,,CLR,0.00,0.00,VWS V14.00,2013-09-30 12:35:00,
2013-09-30 07:40:00,48.4,39.8,29.56,WNW,296,2.0,4.0,72,0.00,,CLR,0.00,5.00,VWS V14.00,2013-09-30 12:40:00,
2013-09-30 07:46:00,48.2,40.0,29.57,WNW,296,3.0,4.0,73,0.00,,CLR,0.00,7.00,VWS V14.00,2013-09-30 12:46:00,
2013-09-30 07:51:00,48.2,40.0,29.57,WNW,296,2.0,4.0,73,0.00,,CLR,0.00,9.00,VWS V14.00,2013-09-30 12:51:00,
2013-09-30 07:56:00,48.1,39.9,29.57,WNW,296,0.0,4.0,73,0.00,,CLR,0.00,14.00,VWS V14.00,2013-09-30 12:56:00,
2013-09-30 08:01:00,48.1,39.9,29.57,WNW,296,0.0,0.0,73,0.00,,CLR,0.00,23.00,VWS V14.00,2013-09-30 13:01:00,
2013-09-30 08:06:00,48.0,39.8,29.57,WNW,296,0.0,0.0,73,0.00,,CLR,0.00,33.00,VWS V14.00,2013-09-30 13:06:00,
2013-09-30 08:11:00,48.0,39.8,29.57,WNW,296,0.0,0.0,73,0.00,,CLR,0.00,44.00,VWS V14.00,2013-09-30 13:11:00,
2013-09-30 08:16:00,48.3,39.7,29.57,WNW,296,2.0,2.0,72,0.00,,CLR,0.00,51.00,VWS V14.00,2013-09-30 13:16:00,
2013-09-30 08:21:00,48.9,40.3,29.57,WNW,296,2.0,3.0,72,0.00,,CLR,0.00,56.00,VWS V14.00,2013-09-30 13:21:00,
2013-09-30 08:26:00,49.4,40.4,29.57,WNW,296,1.0,3.0,71,0.00,,CLR,0.00,47.00,VWS V14.00,2013-09-30 13:26:00,
2013-09-30 08:31:00,49.9,40.5,29.57,WNW,296,2.0,3.0,70,0.00,,CLR,0.00,67.00,VWS V14.00,2013-09-30 13:31:00,
2013-09-30 08:36:00,50.1,40.3,29.56,WNW,296,0.0,3.0,69,0.00,,CLR,0.00,44.00,VWS V14.00,2013-09-30 13:36:00,
2013-09-30 08:41:00,50.4,40.6,29.56,WNW,296,0.0,3.0,69,0.00,,CLR,0.00,67.00,VWS V14.00,2013-09-30 13:41:00,
2013-09-30 08:46:00,50.7,40.5,29.56,WNW,296,0.0,3.0,68,0.00,,CLR,0.00,76.00,VWS V14.00,2013-09-30 13:46:00,
2013-09-30 08:51:00,51.0,40.4,29.56,WNW,296,0.0,3.0,67,0.00,,CLR,0.00,63.00,VWS V14.00,2013-09-30 13:51:00,
2013-09-30 08:56:00,51.4,41.2,29.56,WNW,296,0.0,3.0,68,0.00,,CLR,0.00,72.00,VWS V14.00,2013-09-30 13:56:00,
2013-09-30 09:01:00,52.2,42.0,29.56,WNW,296,0.0,0.0,68,0.00,,CLR,0.00,107.00,VWS V14.00,2013-09-30 14:01:00,
2013-09-30 09:06:00,53.0,43.1,29.56,WNW,296,1.0,1.0,69,0.00,,CLR,0.00,148.00,VWS V14.00,2013-09-30 14:06:00,
2013-09-30 09:11:00,53.6,42.5,29.56,WNW,296,1.0,2.0,66,0.00,,CLR,0.00,104.00,VWS V14.00,2013-09-30 14:11:00,
2013-09-30 09:16:00,53.3,43.0,29.56,WNW,296,2.0,3.0,68,0.00,,CLR,0.00,132.00,VWS V14.00,2013-09-30 14:16:00,
2013-09-30 09:21:00,52.5,43.0,29.56,WNW,296,1.0,3.0,70,0.00,,CLR,0.00,79.00,VWS V14.00,2013-09-30 14:21:00,
2013-09-30 09:26:00,51.9,42.8,29.55,WNW,296,0.0,3.0,71,0.00,,CLR,0.00,83.00,VWS V14.00,2013-09-30 14:26:00,
2013-09-30 09:31:00,51.7,43.0,29.55,WNW,296,0.0,1.0,72,0.00,,CLR,0.00,127.00,VWS V14.00,2013-09-30 14:31:00,
2013-09-30 09:36:00,52.0,43.3,29.55,WNW,296,1.0,2.0,72,0.00,,CLR,0.00,301.00,VWS V14.00,2013-09-30 14:36:00,
2013-09-30 09:41:00,52.7,42.8,29.55,WNW,296,2.0,4.0,69,0.00,,CLR,0.00,269.00,VWS V14.00,2013-09-30 14:41:00,
2013-09-30 09:46:00,53.4,43.9,29.55,WNW,296,2.0,4.0,70,0.00,,CLR,0.00,279.00,VWS V14.00,2013-09-30 14:46:00,
2013-09-30 09:52:00,54.4,43.7,29.55,WNW,296,1.0,4.0,67,0.00,,CLR,0.00,320.00,VWS V14.00,2013-09-30 14:52:00,
2013-09-30 09:57:00,55.3,44.2,29.55,WNW,296,0.0,4.0,66,0.00,,CLR,0.00,313.00,VWS V14.00,2013-09-30 14:57:00,
2013-09-30 10:02:00,56.2,44.6,29.55,WNW,296,1.0,2.0,65,0.00,,CLR,0.00,330.00,VWS V14.00,2013-09-30 15:02:00,
2013-09-30 10:07:00,57.3,46.5,29.54,WNW,296,3.0,4.0,67,0.00,,CLR,0.00,360.00,VWS V14.00,2013-09-30 15:07:00,
2013-09-30 10:12:00,58.1,46.0,29.55,WNW,296,4.0,5.0,64,0.00,,CLR,0.00,378.00,VWS V14.00,2013-09-30 15:12:00,
2013-09-30 10:17:00,58.5,47.2,29.55,WNW,296,2.0,5.0,66,0.00,,CLR,0.00,396.00,VWS V14.00,2013-09-30 15:17:00,
2013-09-30 10:22:00,58.8,47.1,29.55,WNW,296,2.0,5.0,65,0.00,,CLR,0.00,408.00,VWS V14.00,2013-09-30 15:22:00,
2013-09-30 10:27:00,59.3,48.0,29.55,WNW,296,2.0,5.0,66,0.00,,CLR,0.00,369.00,VWS V14.00,2013-09-30 15:27:00,
2013-09-30 10:32:00,59.7,47.5,29.55,WNW,296,2.0,4.0,64,0.00,,CLR,0.00,322.00,VWS V14.00,2013-09-30 15:32:00,
2013-09-30 10:37:00,60.2,47.6,29.55,WNW,296,2.0,4.0,63,0.00,,CLR,0.00,392.00,VWS V14.00,2013-09-30 15:37:00,
2013-09-30 10:42:00,60.8,46.4,29.55,WNW,296,4.0,5.0,59,0.00,,CLR,0.00,425.00,VWS V14.00,2013-09-30 15:42:00,
2013-09-30 10:47:00,61.1,46.7,29.54,WSW,252,4.0,7.0,59,0.00,,CLR,0.00,360.00,VWS V14.00,2013-09-30 15:47:00,
2013-09-30 10:52:00,61.0,47.0,29.54,WSW,252,4.0,7.0,60,0.00,,CLR,0.00,415.00,VWS V14.00,2013-09-30 15:52:00,
2013-09-30 10:57:00,61.3,49.0,29.54,WSW,252,2.0,7.0,64,0.00,,CLR,0.00,278.00,VWS V14.00,2013-09-30 15:57:00,
2013-09-30 11:02:00,61.0,48.3,29.54,WSW,252,4.0,5.0,63,0.00,,CLR,0.00,373.00,VWS V14.00,2013-09-30 16:02:00,
2013-09-30 11:07:00,61.1,47.6,29.54,WSW,252,3.0,5.0,61,0.00,,CLR,0.00,343.00,VWS V14.00,2013-09-30 16:07:00,
2013-09-30 11:12:00,61.3,49.0,29.54,WSW,248,5.0,5.0,64,0.00,,CLR,0.00,439.00,VWS V14.00,2013-09-30 16:12:00,
2013-09-30 11:18:00,61.7,49.8,29.54,WSW,238,5.0,7.0,65,0.00,,CLR,0.00,417.00,VWS V14.00,2013-09-30 16:18:00,
2013-09-30 11:23:00,62.3,49.6,29.54,SW,231,5.0,7.0,63,0.00,,CLR,0.00,425.00,VWS V14.00,2013-09-30 16:23:00,
2013-09-30 11:28:00,62.4,47.9,29.54,SW,229,5.0,7.0,59,0.00,,CLR,0.00,367.00,VWS V14.00,2013-09-30 16:28:00,
2013-09-30 11:33:00,62.3,47.8,29.54,SW,227,4.0,6.0,59,0.00,,CLR,0.00,336.00,VWS V14.00,2013-09-30 16:33:00,
2013-09-30 11:38:00,62.2,48.2,29.54,SW,217,5.0,7.0,60,0.00,,CLR,0.00,315.00,VWS V14.00,2013-09-30 16:38:00,
2013-09-30 11:43:00,62.4,47.9,29.54,SW,217,6.0,7.0,59,0.00,,CLR,0.00,315.00,VWS V14.00,2013-09-30 16:43:00,
2013-09-30 11:48:00,62.4,46.5,29.54,SW,217,4.0,7.0,56,0.00,,CLR,0.00,306.00,VWS V14.00,2013-09-30 16:48:00,
2013-09-30 11:53:00,62.5,46.1,29.54,SW,216,5.0,8.0,55,0.00,,CLR,0.00,311.00,VWS V14.00,2013-09-30 16:53:00,
2013-09-30 11:58:00,62.4,45.5,29.54,SW,216,6.0,8.0,54,0.00,,CLR,0.00,301.00,VWS V14.00,2013-09-30 16:58:00,
2013-09-30 12:03:00,62.4,45.5,29.54,SW,215,6.0,8.0,54,0.00,,CLR,0.00,285.00,VWS V14.00,2013-09-30 17:03:00,
2013-09-30 12:08:00,62.3,46.9,29.53,SW,215,7.0,8.0,57,0.00,,CLR,0.00,274.00,VWS V14.00,2013-09-30 17:08:00,
2013-09-30 12:13:00,62.3,47.3,29.53,SW,215,4.0,8.0,58,0.00,,CLR,0.00,272.00,VWS V14.00,2013-09-30 17:13:00,
2013-09-30 12:18:00,62.4,47.0,29.53,SSW,213,6.0,8.0,57,0.00,,CLR,0.00,213.00,VWS V14.00,2013-09-30 17:18:00,
2013-09-30 12:23:00,62.3,46.0,29.53,SSW,211,5.0,8.0,55,0.00,,CLR,0.00,288.00,VWS V14.00,2013-09-30 17:23:00,
2013-09-30 12:28:00,62.8,46.9,29.53,SSW,211,6.0,8.0,56,0.00,,CLR,0.00,628.00,VWS V14.00,2013-09-30 17:28:00,
2013-09-30 12:33:00,63.9,47.4,29.53,SSW,208,7.0,7.0,55,0.00,,CLR,0.00,654.00,VWS V14.00,2013-09-30 17:33:00,
2013-09-30 12:38:00,64.7,47.2,29.52,South,181,5.0,9.0,53,0.00,,CLR,0.00,643.00,VWS V14.00,2013-09-30 17:38:00,
2013-09-30 12:43:00,65.1,47.1,29.52,South,184,5.0,11.0,52,0.00,,CLR,0.00,643.00,VWS V14.00,2013-09-30 17:43:00,
2013-09-30 12:48:00,65.5,47.9,29.52,South,179,4.0,11.0,53,0.00,,CLR,0.00,647.00,VWS V14.00,2013-09-30 17:48:00,
2013-09-30 12:53:00,66.0,47.9,29.51,South,179,4.0,11.0,52,0.00,,CLR,0.00,649.00,VWS V14.00,2013-09-30 17:53:00,
2013-09-30 12:58:00,65.9,47.8,29.51,South,175,6.0,11.0,52,0.00,,CLR,0.00,652.00,VWS V14.00,2013-09-30 17:58:00,
2013-09-30 13:03:00,66.1,48.5,29.51,South,169,6.0,8.0,53,0.00,,CLR,0.00,654.00,VWS V14.00,2013-09-30 18:03:00,
2013-09-30 13:08:00,66.5,48.3,29.51,SSE,166,8.0,10.0,52,0.00,,CLR,0.00,659.00,VWS V14.00,2013-09-30 18:08:00,
2013-09-30 13:13:00,67.0,47.2,29.51,South,182,8.0,13.0,49,0.00,,CLR,0.00,661.00,VWS V14.00,2013-09-30 18:13:00,
2013-09-30 13:18:00,67.3,47.5,29.51,South,184,6.0,13.0,49,0.00,,CLR,0.00,666.00,VWS V14.00,2013-09-30 18:18:00,
2013-09-30 13:23:00,67.8,48.5,29.50,South,182,9.0,13.0,50,0.00,,CLR,0.00,679.00,VWS V14.00,2013-09-30 18:23:00,
2013-09-30 13:29:00,68.0,47.6,29.50,South,181,8.0,13.0,48,0.00,,CLR,0.00,705.00,VWS V14.00,2013-09-30 18:29:00,
2013-09-30 13:34:00,68.5,50.2,29.50,South,175,7.0,11.0,52,0.00,,CLR,0.00,763.00,VWS V14.00,2013-09-30 18:34:00,
2013-09-30 13:39:00,69.0,48.5,29.50,South,182,7.0,15.0,48,0.00,,CLR,0.00,893.00,VWS V14.00,2013-09-30 18:39:00,
2013-09-30 13:44:00,69.0,48.5,29.50,South,181,6.0,15.0,48,0.00,,CLR,0.00,564.00,VWS V14.00,2013-09-30 18:44:00,
2013-09-30 13:49:00,68.6,50.3,29.49,SSE,155,9.0,15.0,52,0.00,,CLR,0.00,598.00,VWS V14.00,2013-09-30 18:49:00,
2013-09-30 13:54:00,68.6,49.8,29.49,SSE,168,9.0,15.0,51,0.00,,CLR,0.00,443.00,VWS V14.00,2013-09-30 18:54:00,
2013-09-30 13:59:00,68.0,48.7,29.49,SSE,157,8.0,15.0,50,0.00,,CLR,0.00,299.00,VWS V14.00,2013-09-30 18:59:00,
2013-09-30 14:04:00,68.0,51.2,29.48,South,175,10.0,14.0,55,0.00,,CLR,0.00,548.00,VWS V14.00,2013-09-30 19:04:00,
2013-09-30 14:09:00,69.0,49.1,29.48,SSE,160,7.0,14.0,49,0.00,,CLR,0.00,624.00,VWS V14.00,2013-09-30 19:09:00,
2013-09-30 14:14:00,69.1,50.8,29.48,SSE,164,7.0,14.0,52,0.00,,CLR,0.00,501.00,VWS V14.00,2013-09-30 19:14:00,
2013-09-30 14:19:00,68.5,49.2,29.48,South,171,12.0,14.0,50,0.00,,CLR,0.00,230.00,VWS V14.00,2013-09-30 19:19:00,
2013-09-30 14:24:00,68.0,47.0,29.47,South,180,9.0,18.0,47,0.00,,CLR,0.00,279.00,VWS V14.00,2013-09-30 19:24:00,
2013-09-30 14:29:00,68.1,47.1,29.47,South,190,12.0,18.0,47,0.00,,CLR,0.00,262.00,VWS V14.00,2013-09-30 19:29:00,
2013-09-30 14:34:00,69.4,48.3,29.47,SSW,193,10.0,16.0,47,0.00,,CLR,0.00,710.00,VWS V14.00,2013-09-30 19:34:00,
2013-09-30 14:39:00,70.3,49.7,29.47,SSE,149,9.0,17.0,48,0.00,,CLR,0.00,663.00,VWS V14.00,2013-09-30 19:39:00,
2013-09-30 14:44:00,70.4,49.2,29.47,South,178,12.0,17.0,47,0.00,,CLR,0.00,657.00,VWS V14.00,2013-09-30 19:44:00,
2013-09-30 14:49:00,70.5,49.3,29.47,South,182,9.0,18.0,47,0.00,,CLR,0.00,668.00,VWS V14.00,2013-09-30 19:49:00,
2013-09-30 14:54:00,70.3,48.6,29.47,SSW,192,13.0,20.0,46,0.00,,CLR,0.00,668.00,VWS V14.00,2013-09-30 19:54:00,
2013-09-30 14:59:00,70.4,49.2,29.46,SSW,197,7.0,20.0,47,0.00,,CLR,0.00,680.00,VWS V14.00,2013-09-30 19:59:00,
2013-09-30 15:04:00,70.8,49.0,29.46,SSW,196,9.0,18.0,46,0.00,,CLR,0.00,325.00,VWS V14.00,2013-09-30 20:04:00,
2013-09-30 15:09:00,70.5,49.9,29.46,South,191,10.0,18.0,48,0.00,,CLR,0.00,538.00,VWS V14.00,2013-09-30 20:09:00,
2013-09-30 15:14:00,70.5,49.9,29.46,South,175,11.0,18.0,48,0.00,,CLR,0.00,464.00,VWS V14.00,2013-09-30 20:14:00,
2013-09-30 15:19:00,71.2,51.1,29.45,South,174,8.0,18.0,49,0.00,,CLR,0.00,629.00,VWS V14.00,2013-09-30 20:19:00,
2013-09-30 15:24:00,71.7,52.6,29.45,South,189,13.0,18.0,51,0.00,,CLR,0.00,612.00,VWS V14.00,2013-09-30 20:24:00,
2013-09-30 15:29:00,71.9,50.6,29.45,South,174,10.0,18.0,47,0.00,,CLR,0.00,606.00,VWS V14.00,2013-09-30 20:29:00,
2013-09-30 15:34:00,72.0,50.1,29.44,SE,138,12.0,12.0,46,0.00,,CLR,0.00,557.00,VWS V14.00,2013-09-30 20:34:00,
2013-09-30 15:39:00,72.1,51.3,29.45,SSE,152,4.0,12.0,48,0.00,,CLR,0.00,628.00,VWS V14.00,2013-09-30 20:39:00,
2013-09-30 15:44:00,71.9,50.0,29.44,SSE,153,10.0,13.0,46,0.00,,CLR,0.00,628.00,VWS V14.00,2013-09-30 20:44:00,
2013-09-30 15:49:00,71.7,51.5,29.44,SSE,149,9.0,13.0,49,0.00,,CLR,0.00,649.00,VWS V14.00,2013-09-30 20:49:00,
2013-09-30 15:54:00,72.1,51.3,29.44,SE,142,9.0,13.0,48,0.00,,CLR,0.00,617.00,VWS V14.00,2013-09-30 20:54:00,
2013-09-30 15:59:00,72.4,51.0,29.44,SSE,161,4.0,5.0,47,0.00,,CLR,0.00,573.00,VWS V14.00,2013-09-30 20:59:00,
2013-09-30 16:04:00,73.2,50.6,29.44,South,186,13.0,16.0,45,0.00,,CLR,0.00,466.00,VWS V14.00,2013-09-30 21:04:00,
2013-09-30 16:10:00,73.4,47.6,29.43,SW,215,13.0,16.0,40,0.00,,CLR,0.00,541.00,VWS V14.00,2013-09-30 21:10:00,
2013-09-30 16:15:00,73.3,48.2,29.44,South,186,14.0,19.0,41,0.00,,CLR,0.00,555.00,VWS V14.00,2013-09-30 21:15:00,
2013-09-30 16:20:00,72.4,48.7,29.44,SSW,196,8.0,19.0,43,0.00,,CLR,0.00,185.00,VWS V14.00,2013-09-30 21:20:00,
2013-09-30 16:25:00,72.8,50.8,29.43,South,184,10.0,19.0,46,0.00,,CLR,0.00,545.00,VWS V14.00,2013-09-30 21:25:00,
2013-09-30 16:30:00,73.3,51.3,29.43,South,186,8.0,12.0,46,0.00,,CLR,0.00,206.00,VWS V14.00,2013-09-30 21:30:00,
2013-09-30 16:35:00,73.6,49.8,29.43,South,190,12.0,19.0,43,0.00,,CLR,0.00,473.00,VWS V14.00,2013-09-30 21:35:00,
2013-09-30 16:40:00,73.9,50.0,29.43,SSW,192,9.0,19.0,43,0.00,,CLR,0.00,455.00,VWS V14.00,2013-09-30 21:40:00,
2013-09-30 16:45:00,74.2,50.3,29.43,South,191,11.0,19.0,43,0.00,,CLR,0.00,461.00,VWS V14.00,2013-09-30 21:45:00,
2013-09-30 16:50:00,74.1,48.3,29.43,South,181,12.0,19.0,40,0.00,,CLR,0.00,434.00,VWS V14.00,2013-09-30 21:50:00,
2013-09-30 16:55:00,74.0,49.5,29.43,South,178,10.0,19.0,42,0.00,,CLR,0.00,313.00,VWS V14.00,2013-09-30 21:55:00,
2013-09-30 17:00:00,73.6,49.1,29.43,SSW,195,15.0,15.0,42,0.00,,CLR,0.00,214.00,VWS V14.00,2013-09-30 22:00:00,
2013-09-30 17:05:00,73.0,48.6,29.43,SSW,203,10.0,17.0,42,0.00,,CLR,0.00,366.00,VWS V14.00,2013-09-30 22:05:00,
2013-09-30 17:10:00,72.8,49.6,29.43,SSW,196,9.0,17.0,44,0.00,,CLR,0.00,244.00,VWS V14.00,2013-09-30 22:10:00,
2013-09-30 17:15:00,73.2,50.0,29.43,SSW,192,10.0,17.0,44,0.00,,CLR,0.00,369.00,VWS V14.00,2013-09-30 22:15:00,
2013-09-30 17:20:00,73.3,50.7,29.43,South,191,8.0,17.0,45,0.00,,CLR,0.00,348.00,VWS V14.00,2013-09-30 22:20:00,
2013-09-30 17:25:00,73.2,50.0,29.43,SSW,192,8.0,19.0,44,0.00,,CLR,0.00,332.00,VWS V14.00,2013-09-30 22:25:00,
2013-09-30 17:30:00,72.7,49.5,29.42,South,178,11.0,14.0,44,0.00,,CLR,0.00,209.00,VWS V14.00,2013-09-30 22:30:00,
2013-09-30 17:35:00,72.8,50.2,29.42,SSW,192,7.0,14.0,45,0.00,,CLR,0.00,313.00,VWS V14.00,2013-09-30 22:35:00,
2013-09-30 17:40:00,73.1,49.9,29.43,South,188,10.0,14.0,44,0.00,,CLR,0.00,306.00,VWS V14.00,2013-09-30 22:40:00,
2013-09-30 17:45:00,73.3,48.8,29.42,SSW,196,8.0,14.0,42,0.00,,CLR,0.00,206.00,VWS V14.00,2013-09-30 22:45:00,
2013-09-30 17:50:00,72.8,49.0,29.43,SSW,192,11.0,14.0,43,0.00,,CLR,0.00,155.00,VWS V14.00,2013-09-30 22:50:00,
2013-09-30 17:55:00,72.3,49.2,29.43,South,188,8.0,15.0,44,0.00,,CLR,0.00,104.00,VWS V14.00,2013-09-30 22:55:00,
2013-09-30 18:00:00,71.6,50.3,29.43,South,184,9.0,13.0,47,0.00,,CLR,0.00,172.00,VWS V14.00,2013-09-30 23:00:00,
2013-09-30 18:05:00,71.6,49.2,29.43,South,186,12.0,15.0,45,0.00,,CLR,0.00,246.00,VWS V14.00,2013-09-30 23:05:00,
2013-09-30 18:10:00,71.8,49.3,29.43,SSW,192,8.0,15.0,45,0.00,,CLR,0.00,149.00,VWS V14.00,2013-09-30 23:10:00,
2013-09-30 18:15:00,71.4,49.0,29.43,South,186,10.0,15.0,45,0.00,,CLR,0.00,81.00,VWS V14.00,2013-09-30 23:15:00,
2013-09-30 18:21:00,70.8,49.0,29.43,South,187,10.0,15.0,46,0.00,,CLR,0.00,60.00,VWS V14.00,2013-09-30 23:21:00,
2013-09-30 18:26:00,70.6,48.8,29.43,South,189,7.0,15.0,46,0.00,,CLR,0.00,81.00,VWS V14.00,2013-09-30 23:26:00,
2013-09-30 18:31:00,70.2,49.6,29.43,South,179,8.0,9.0,48,0.00,,CLR,0.00,113.00,VWS V14.00,2013-09-30 23:31:00,
2013-09-30 18:36:00,69.9,49.9,29.43,SSW,192,9.0,13.0,49,0.00,,CLR,0.00,53.00,VWS V14.00,2013-09-30 23:36:00,
2013-09-30 18:41:00,69.5,49.5,29.43,South,188,8.0,13.0,49,0.00,,FEW110,0.00,39.00,VWS V14.00,2013-09-30 23:41:00,
2013-09-30 18:46:00,69.0,49.1,29.43,South,186,8.0,13.0,49,0.00,,FEW110,0.00,37.00,VWS V14.00,2013-09-30 23:46:00,
2013-09-30 18:51:00,68.9,49.5,29.43,South,188,8.0,13.0,50,0.00,,FEW110,0.00,28.00,VWS V14.00,2013-09-30 23:51:00,
2013-09-30 18:56:00,68.7,49.9,29.44,South,184,10.0,13.0,51,0.00,,FEW110,0.00,25.00,VWS V14.00,2013-09-30 23:56:00,
2013-09-30 19:01:00,68.5,49.7,29.44,South,184,11.0,11.0,51,0.00,,FEW110,0.00,18.00,VWS V14.00,2013-10-01 00:01:00,
2013-09-30 19:06:00,68.4,49.6,29.44,South,181,9.0,11.0,51,0.00,,FEW110,0.00,9.00,VWS V14.00,2013-10-01 00:06:00,
2013-09-30 19:11:00,68.3,49.5,29.44,South,180,7.0,11.0,51,0.00,,FEW110,0.00,5.00,VWS V14.00,2013-10-01 00:11:00,
2013-09-30 19:16:00,68.3,50.0,29.44,South,180,5.0,11.0,52,0.00,,FEW110,0.00,0.00,VWS V14.00,2013-10-01 00:16:00,
2013-09-30 19:21:00,68.5,49.7,29.44,South,182,7.0,11.0,51,0.00,,FEW110,0.00,0.00,VWS V14.00,2013-10-01 00:21:00,
2013-09-30 19:26:00,68.5,49.7,29.44,South,178,6.0,11.0,51,0.00,,FEW110,0.00,0.00,VWS V14.00,2013-10-01 00:26:00,
2013-09-30 19:31:00,68.4,49.6,29.45,South,181,6.0,10.0,51,0.00,,FEW110,0.00,0.00,VWS V14.00,2013-10-01 00:31:00,
2013-09-30 19:36:00,68.4,50.1,29.46,SW,223,10.0,11.0,52,0.00,,FEW110,0.00,0.00,VWS V14.00,2013-10-01 00:36:00,
2013-09-30 19:41:00,67.1,50.4,29.47,West,259,18.0,21.0,55,0.00,,FEW110,0.00,0.00,VWS V14.00,2013-10-01 00:41:00,
2013-09-30 19:46:00,66.9,49.7,29.48,WNW,289,22.0,32.0,54,0.00,,FEW110,0.00,0.00,VWS V14.00,2013-10-01 00:46:00,
2013-09-30 19:51:00,65.8,47.7,29.49,NW,321,38.0,41.0,52,0.00,,FEW110,0.00,0.00,VWS V14.00,2013-10-01 00:51:00,
2013-09-30 19:56:00,64.7,47.7,29.51,NW,317,23.0,41.0,54,0.00,,FEW110,0.00,0.00,VWS V14.00,2013-10-01 00:56:00,
2013-09-30 20:01:00,63.7,47.2,29.51,NW,309,23.0,34.0,55,0.00,,FEW110,0.00,0.00,VWS V14.00,2013-10-01 01:01:00,
2013-09-30 20:06:00,62.6,46.7,29.52,NNW,328,32.0,41.0,56,0.00,,FEW110,0.00,0.00,VWS V14.00,2013-10-01 01:06:00,
2013-09-30 20:11:00,61.7,45.9,29.53,NW,316,27.0,43.0,56,0.00,,FEW110,0.00,0.00,VWS V14.00,2013-10-01 01:11:00,
2013-09-30 20:16:00,61.1,45.3,29.54,NW,311,19.0,43.0,56,0.00,,FEW110,0.00,0.00,VWS V14.00,2013-10-01 01:16:00,
2013-09-30 20:21:00,60.8,45.5,29.54,NW,326,22.0,43.0,57,0.00,,FEW110,0.00,0.00,VWS V14.00,2013-10-01 01:21:00,
2013-09-30 20:26:00,60.3,45.9,29.55,NW,308,23.0,43.0,59,0.00,,FEW110,0.00,0.00,VWS V14.00,2013-10-01 01:26:00,
2013-09-30 20:31:00,59.9,46.0,29.56,NW,309,33.0,39.0,60,0.00,,FEW110,0.00,0.00,VWS V14.00,2013-10-01 01:31:00,
2013-09-30 20:36:00,58.2,47.7,29.56,NW,317,31.0,39.0,68,0.00,,FEW110,0.00,0.00,VWS V14.00,2013-10-01 01:36:00,
2013-09-30 20:41:00,55.8,47.3,29.58,NW,319,22.0,39.0,73,0.00,,OVC095,0.00,0.00,VWS V14.00,2013-10-01 01:41:00,
2013-09-30 20:46:00,54.6,47.5,29.57,NNW,344,20.0,39.0,77,0.01,,OVC095,0.01,0.00,VWS V14.00,2013-10-01 01:46:00,
2013-09-30 20:51:00,53.7,48.0,29.58,NW,322,19.0,39.0,81,0.02,,OVC095,0.02,0.00,VWS V14.00,2013-10-01 01:51:00,
2013-09-30 20:56:00,53.2,47.9,29.58,NW,317,19.0,39.0,82,0.03,,OVC095,0.03,0.00,VWS V14.00,2013-10-01 01:56:00,
2013-09-30 21:01:00,53.1,47.8,29.57,NW,321,12.0,19.0,82,0.03,,OVC095,0.03,0.00,VWS V14.00,2013-10-01 02:01:00,
2013-09-30 21:06:00,53.2,47.9,29.57,NW,326,16.0,22.0,82,0.03,,OVC095,0.03,0.00,VWS V14.00,2013-10-01 02:06:00,
2013-09-30 21:12:00,53.3,48.0,29.57,NW,312,13.0,23.0,82,0.03,,OVC095,0.03,0.00,VWS V14.00,2013-10-01 02:12:00,
2013-09-30 21:17:00,53.6,47.9,29.58,NNW,331,18.0,23.0,81,0.03,,OVC095,0.03,0.00,VWS V14.00,2013-10-01 02:17:00,
2013-09-30 21:22:00,53.7,48.3,29.58,NW,315,23.0,25.0,82,0.03,,OVC095,0.03,0.00,VWS V14.00,2013-10-01 02:22:00,
2013-09-30 21:27:00,53.5,48.5,29.56,NNW,346,17.0,27.0,83,0.03,,OVC095,0.03,0.00,VWS V14.00,2013-10-01 02:27:00,
2013-09-30 21:32:00,53.1,48.4,29.58,NW,326,15.0,22.0,84,0.03,,OVC095,0.03,0.00,VWS V14.00,2013-10-01 02:32:00,
2013-09-30 21:37:00,52.9,48.5,29.58,NW,319,11.0,22.0,85,0.03,,OVC095,0.03,0.00,VWS V14.00,2013-10-01 02:37:00,
2013-09-30 21:42:00,52.9,48.5,29.58,NNW,329,7.0,22.0,85,0.03,,-RA,0.03,0.00,VWS V14.00,2013-10-01 02:42:00,
2013-09-30 21:47:00,52.8,48.4,29.58,NNW,346,9.0,22.0,85,0.03,,-RA,0.03,0.00,VWS V14.00,2013-10-01 02:47:00,
2013-09-30 21:52:00,52.4,48.3,29.58,NNW,344,5.0,22.0,86,0.03,,-RA,0.03,0.00,VWS V14.00,2013-10-01 02:52:00,
2013-09-30 21:57:00,52.4,48.3,29.59,NNW,337,6.0,22.0,86,0.03,,-RA,0.03,0.00,VWS V14.00,2013-10-01 02:57:00,
2013-09-30 22:02:00,52.3,48.2,29.58,NNW,337,1.0,3.0,86,0.00,,-RA,0.03,0.00,VWS V14.00,2013-10-01 03:02:00,
2013-09-30 22:07:00,52.2,48.5,29.57,NNW,337,0.0,3.0,87,0.00,,-RA,0.03,0.00,VWS V14.00,2013-10-01 03:07:00,
2013-09-30 22:12:00,52.1,48.4,29.57,NNW,337,0.0,3.0,87,0.00,,-RA,0.03,0.00,VWS V14.00,2013-10-01 03:12:00,
2013-09-30 22:17:00,52.1,48.7,29.58,NNW,337,0.0,3.0,88,0.00,,-RA,0.03,0.00,VWS V14.00,2013-10-01 03:17:00,
2013-09-30 22:22:00,51.8,48.7,29.58,NNW,337,1.0,4.0,89,0.00,,-RA,0.03,0.00,VWS V14.00,2013-10-01 03:22:00,
2013-09-30 22:27:00,51.7,48.6,29.58,NNW,337,2.0,4.0,89,0.00,,-RA,0.03,0.00,VWS V14.00,2013-10-01 03:27:00,
2013-09-30 22:32:00,51.5,48.4,29.57,NNW,337,0.0,3.0,89,0.00,,-RA,0.03,0.00,VWS V14.00,2013-10-01 03:32:00,
2013-09-30 22:37:00,51.3,48.2,29.58,NW,321,6.0,7.0,89,0.00,,-RA,0.03,0.00,VWS V14.00,2013-10-01 03:37:00,
2013-09-30 22:42:00,51.4,48.3,29.59,West,281,7.0,9.0,89,0.00,,-RA,0.03,0.00,VWS V14.00,2013-10-01 03:42:00,
2013-09-30 22:47:00,51.5,48.4,29.60,West,279,8.0,9.0,89,0.00,,-RA,0.03,0.00,VWS V14.00,2013-10-01 03:47:00,
2013-09-30 22:52:00,51.5,48.4,29.60,West,269,8.0,9.0,89,0.00,,-RA,0.03,0.00,VWS V14.00,2013-10-01 03:52:00,
2013-09-30 22:57:00,51.3,48.5,29.60,WSW,255,8.0,11.0,90,0.00,,-RA,0.03,0.00,VWS V14.00,2013-10-01 03:57:00,
2013-09-30 23:01:00,51.2,48.4,29.60,WSW,258,8.0,10.0,90,0.00,,-RA,0.03,0.00,VWS V14.00,2013-10-01 04:01:00,
2013-09-30 23:03:00,51.2,48.4,29.60,WSW,258,6.0,10.0,90,0.00,,-RA,0.03,0.00,VWS V14.00,2013-10-01 04:03:00,
2013-09-30 23:05:00,51.3,48.5,29.61,WSW,256,6.0,10.0,90,0.00,,-RA,0.03,0.00,VWS V14.00,2013-10-01 04:05:00,
2013-09-30 23:06:00,51.3,48.5,29.61,WSW,257,8.0,10.0,90,0.00,,-RA,0.03,0.00,VWS V14.00,2013-10-01 04:06:00,
2013-09-30 23:10:00,51.3,48.5,29.60,WSW,257,4.0,10.0,90,0.00,,-RA,0.03,0.00,VWS V14.00,2013-10-01 04:10:00,
2013-09-30 23:15:00,51.2,48.4,29.60,WSW,257,5.0,10.0,90,0.00,,-RA,0.03,0.00,VWS V14.00,2013-10-01 04:15:00,
2013-09-30 23:20:00,51.0,48.2,29.61,WSW,257,6.0,10.0,90,0.00,,-RA,0.03,0.00,VWS V14.00,2013-10-01 04:20:00,
2013-09-30 23:25:00,50.6,47.8,29.61,WSW,257,6.0,10.0,90,0.00,,-RA,0.03,0.00,VWS V14.00,2013-10-01 04:25:00,
2013-09-30 23:31:00,50.4,47.9,29.62,WSW,251,6.0,8.0,91,0.00,,-RA,0.03,0.00,VWS V14.00,2013-10-01 04:31:00,
2013-09-30 23:36:00,50.5,47.7,29.62,WSW,240,6.0,10.0,90,0.00,,-RA,0.03,0.00,VWS V14.00,2013-10-01 04:36:00,
2013-09-30 23:41:00,50.5,47.4,29.62,WSW,246,9.0,11.0,89,0.00,,BKN100,0.03,0.00,VWS V14.00,2013-10-01 04:41:00,
2013-09-30 23:46:00,50.5,47.1,29.62,WSW,244,7.0,11.0,88,0.00,,BKN100,0.03,0.00,VWS V14.00,2013-10-01 04:46:00,
2013-09-30 23:51:00,50.4,46.7,29.62,WSW,242,8.0,11.0,87,0.00,,BKN100,0.03,0.00,VWS V14.00,2013-10-01 04:51:00,
2013-09-30 23:56:00,50.5,46.8,29.63,WSW,252,7.0,11.0,87,0.00,,BKN100,0.03,0.00,VWS V14.00,2013-10-01 04:56:00,